GFSGBSN_925_spd_333.txt.gz
Wind_Speed
23 24 24 24 24 24 24 22 19 18 19 19 20 17 17 16 13 10 7 9 11 11 11 10 9 9 6 2 5 23 28 30 25 18 17 7 8 6 5 6 9 7 6 9 10 10 11
24 24 25 25 26 26 26 24 20 17 17 19 19 17 15 15 12 9 5 5 9 10 8 8 12 15 2 6 15 19 27 31 27 18 12 12 5 8 7 7 4 7 10 10 10 13 11
25 25 26 27 27 27 27 26 22 17 17 19 20 18 14 15 14 7 8 5 9 7 5 4 9 12 6 0 15 18 29 32 28 16 6 13 11 5 8 9 7 8 8 10 12 7 9
25 25 26 27 27 27 28 26 22 18 18 20 21 19 15 12 12 9 3 3 5 6 8 4 8 7 2 13 19 17 33 31 27 19 22 10 6 5 4 6 8 6 5 5 7 11 8
26 27 28 28 29 29 28 27 22 18 18 20 22 20 17 9 12 7 3 3 1 6 12 8 11 4 3 17 25 20 32 26 27 17 22 9 4 5 5 3 5 6 2 10 12 17 16
25 26 27 28 29 29 29 27 21 18 18 19 22 21 17 8 10 5 5 3 7 15 2 6 11 5 8 9 19 27 37 35 9 11 7 1 2 3 5 6 3 7 9 7 8 6 11
26 27 28 29 29 29 28 27 22 18 18 19 22 19 14 10 10 5 1 7 5 3 13 7 4 4 6 16 9 20 32 26 15 8 7 5 5 3 6 4 8 7 7 10 6 12 13
27 27 28 29 30 30 29 28 24 17 18 20 23 19 14 6 8 7 2 4 5 3 2 6 6 4 15 15 5 10 27 10 8 7 16 8 5 4 6 8 9 7 10 9 8 16 16
27 28 29 30 31 32 30 29 25 18 13 21 24 18 14 3 5 10 13 13 8 7 2 3 6 1 9 11 4 12 10 10 7 10 14 6 5 15 17 6 11 10 11 16 16 21 14
27 28 29 31 33 34 32 31 27 20 13 14 23 18 15 0 4 8 6 11 8 7 3 3 3 4 8 10 2 19 16 4 8 9 10 7 19 17 14 8 8 4 14 19 19 14 9
26 28 30 32 33 35 33 31 28 21 15 10 18 19 12 14 5 5 12 8 8 1 4 3 4 6 6 10 7 18 19 6 13 13 9 12 13 22 14 19 18 9 19 18 18 18 17
26 28 30 32 34 36 34 31 29 20 13 10 11 18 17 4 8 11 12 5 4 5 2 4 5 11 6 13 11 10 9 10 10 6 15 16 13 12 4 24 13 20 20 20 14 12 11
25 28 30 32 35 36 36 32 30 20 13 6 10 14 17 20 7 15 8 4 5 6 8 7 8 14 8 11 10 17 13 18 10 9 16 14 12 17 20 34 31 23 16 7 4 2 4
25 27 30 33 36 37 37 33 31 20 13 4 5 7 7 20 17 15 7 4 9 7 7 9 9 13 9 13 7 14 10 10 15 12 9 10 18 22 29 17 15 17 9 6 6 5 7
25 28 30 33 35 37 37 35 32 21 12 4 6 4 8 26 22 12 4 7 3 6 7 9 13 5 7 12 9 8 7 12 8 14 8 9 12 21 21 27 18 8 7 15 6 11 6
25 28 30 33 35 37 37 36 34 23 10 7 6 3 22 25 18 5 5 6 4 7 8 8 8 8 8 12 7 8 8 14 10 13 6 8 15 13 22 13 23 15 9 5 2 3 3
25 27 30 32 35 37 37 37 34 28 10 11 4 3 23 24 12 6 4 4 6 9 8 6 8 5 9 10 8 6 10 10 19 14 13 8 9 13 18 10 18 17 11 6 3 5 5
24 26 29 32 34 36 36 36 32 30 22 10 7 4 24 15 5 3 3 3 2 7 9 6 6 5 6 9 5 5 9 12 14 12 7 4 4 11 18 12 7 12 14 7 2 9 5
23 25 28 31 33 36 35 35 32 24 26 9 3 3 16 11 4 2 5 5 4 6 6 5 5 5 7 6 4 10 10 8 12 11 9 6 4 11 15 14 22 9 18 15 9 4 11
22 24 26 29 32 35 36 35 34 23 17 5 3 3 4 6 3 5 5 6 5 2 3 7 4 6 7 7 6 4 9 6 8 9 18 8 4 3 3 5 7 7 17 19 9 5 5
20 22 24 27 30 32 35 36 35 24 22 4 4 1 4 2 4 7 6 6 6 5 6 8 6 10 9 4 6 5 6 6 4 10 6 5 4 5 7 10 15 12 16 14 13 3 7
19 20 22 24 27 29 33 33 35 30 12 20 3 3 4 0 1 8 5 6 7 7 5 4 5 10 8 4 3 6 8 5 1 6 4 7 3 3 2 6 5 13 11 11 9 5 4
18 19 20 21 24 26 29 30 30 33 21 10 10 8 3 3 4 4 2 3 6 5 2 6 7 5 5 6 7 8 7 8 7 3 5 5 4 6 3 7 2 8 5 10 7 3 4
17 17 18 19 21 23 25 27 25 27 24 11 11 6 3 1 4 2 3 5 2 5 2 4 7 5 5 12 10 12 14 14 8 3 3 4 7 3 4 3 3 4 10 11 9 13 4
15 15 16 17 18 19 21 24 23 22 18 23 19 8 2 2 0 5 2 4 7 3 3 0 4 1 8 7 3 5 4 2 4 1 6 3 3 6 1 3 4 11 10 5 4 5 13
14 14 14 14 15 16 18 20 22 19 18 14 24 14 4 3 4 7 5 7 3 5 6 3 5 9 3 2 2 0 2 1 2 4 4 6 5 3 5 3 1 6 8 9 1 1 10
12 12 11 12 12 14 15 16 18 18 15 16 17 19 7 3 3 5 4 2 3 3 1 4 5 6 5 4 2 1 2 5 2 3 6 4 3 3 4 1 2 5 7 4 5 5 6
10 10 9 10 10 11 12 14 14 16 15 11 13 15 7 1 5 8 5 4 4 3 2 5 4 4 4 5 3 3 2 3 4 5 2 3 2 1 3 4 4 6 5 5 5 4 4
9 9 7 8 8 9 10 11 12 13 13 11 6 12 8 4 3 5 2 2 3 6 3 4 3 3 2 3 3 3 3 3 5 3 6 3 5 3 4 5 6 5 5 3 3 3 5

GFSGBSN_925_spd_339.txt.gz
Wind_Speed
21 22 23 23 23 23 21 19 15 16 17 18 17 14 13 12 10 8 8 10 13 13 12 13 16 15 8 7 4 21 32 32 16 13 9 5 5 3 4 4 8 5 2 4 6 5 3
23 23 24 24 24 23 22 19 16 16 18 19 18 15 13 11 10 7 7 8 9 10 10 12 15 15 11 12 18 31 34 26 19 11 8 2 1 3 2 3 0 4 4 6 2 8 4
22 23 24 24 24 24 21 18 16 16 17 19 18 15 11 9 9 6 6 7 9 10 9 9 12 5 9 4 22 32 33 28 23 11 3 4 2 2 3 7 2 7 5 4 8 12 5
22 23 24 24 24 23 22 17 15 14 16 18 17 15 10 8 8 6 4 5 9 10 6 7 8 6 3 15 28 36 35 31 23 19 4 7 4 4 5 6 7 6 5 4 5 13 7
23 24 24 25 25 24 23 19 14 14 15 18 17 15 11 10 6 6 7 8 11 7 8 15 7 6 5 17 28 31 33 24 16 19 33 12 7 6 10 6 5 7 4 4 7 7 6
24 24 25 26 26 25 25 20 14 12 15 17 16 14 10 11 7 3 4 4 13 10 4 5 16 5 8 8 18 30 33 22 7 14 8 12 8 7 15 11 5 8 6 4 1 8 9
24 25 26 27 27 26 26 22 16 10 13 17 16 14 9 11 10 7 4 3 7 7 11 5 2 4 3 10 29 26 23 12 10 8 6 8 15 10 10 12 11 10 7 6 8 7 12
25 26 27 28 28 27 27 23 17 12 12 16 15 14 7 9 14 8 9 7 3 2 2 1 2 4 9 10 9 23 23 8 10 12 6 6 12 6 11 17 15 12 5 5 9 17 12
26 27 28 29 29 28 28 24 19 14 12 16 15 13 4 5 6 12 17 8 6 1 3 1 1 4 5 17 6 17 13 5 8 9 12 10 3 9 12 18 20 12 8 8 13 16 10
26 28 29 30 30 29 29 25 19 14 13 15 18 11 11 3 2 3 4 5 3 0 5 9 7 8 17 3 7 22 21 5 9 7 5 5 7 13 16 15 13 15 9 18 20 10 4
26 29 30 31 30 30 29 26 19 12 11 13 17 19 11 13 2 3 6 3 2 1 5 8 5 5 8 8 4 17 26 7 7 10 11 8 9 11 15 14 12 16 17 21 20 17 10
26 29 30 30 30 30 29 27 21 13 6 9 13 17 16 4 9 7 5 2 3 6 2 6 4 5 6 7 5 6 12 10 3 4 8 4 3 7 11 17 16 21 16 26 16 10 8
26 29 31 31 30 30 30 29 24 16 4 5 9 17 17 10 8 9 2 3 5 7 5 8 5 5 4 8 6 7 12 21 9 7 12 6 5 9 10 19 20 21 17 5 4 3 2
26 28 31 32 31 31 31 29 25 19 6 2 5 10 21 23 9 1 3 5 9 3 3 4 5 4 5 7 5 7 5 5 12 3 2 6 7 13 16 10 7 14 3 4 7 5 4
26 28 30 33 32 32 32 30 26 22 9 4 3 3 26 25 9 3 6 7 4 3 3 6 3 5 6 7 5 6 7 5 6 7 4 7 4 7 13 7 4 11 9 15 5 10 5
25 28 30 32 33 33 33 32 28 24 14 7 1 2 18 21 9 5 6 5 3 4 3 3 4 5 5 6 7 5 5 4 2 4 1 2 4 6 10 6 5 5 11 6 5 6 4
25 27 29 31 34 34 34 32 27 24 15 5 3 4 21 15 7 7 4 4 3 4 4 4 2 3 4 4 4 2 5 0 2 5 1 0 2 7 4 6 8 7 7 5 2 6 3
24 26 28 31 34 35 36 33 28 24 17 6 4 4 21 12 5 3 3 3 3 5 6 5 4 3 2 3 4 1 1 1 5 3 4 2 2 4 3 3 7 7 5 5 3 7 4
24 25 27 30 33 35 37 35 30 20 15 3 3 1 14 8 4 3 4 5 4 4 5 3 5 4 4 3 2 1 2 3 4 6 4 3 3 4 7 4 6 5 11 7 4 3 4
23 24 26 28 31 34 36 37 32 18 11 5 3 3 5 7 2 7 5 4 3 3 4 5 3 3 4 3 3 1 1 1 5 2 9 2 2 5 4 4 5 3 9 11 4 3 2
22 23 25 27 29 33 35 37 34 17 8 4 4 0 2 2 4 5 4 2 2 3 2 6 3 2 2 3 4 1 2 4 4 3 4 2 3 4 4 3 3 3 3 6 5 4 4
22 22 23 25 27 31 33 35 35 24 9 10 3 4 4 2 2 6 5 2 1 1 2 1 2 2 0 2 4 4 2 2 5 2 4 3 4 4 7 7 4 2 0 2 3 1 2
22 21 22 23 25 28 30 32 34 33 13 8 5 4 4 4 2 4 1 2 2 4 3 3 3 0 2 4 7 10 9 6 5 0 2 2 3 2 3 3 3 4 3 2 3 3 5
19 20 20 20 22 24 26 27 29 29 25 10 6 3 4 1 2 2 3 2 1 2 3 3 2 1 3 6 5 2 4 7 6 6 6 3 3 1 2 3 2 6 2 4 6 5 6
16 18 18 18 19 20 22 24 24 25 21 23 11 3 3 2 1 4 4 3 2 4 3 3 1 2 9 4 4 4 3 4 3 3 3 3 1 3 2 2 3 2 3 5 6 7 4
14 16 16 16 16 17 18 19 21 21 22 15 22 8 5 5 3 1 2 1 2 1 3 1 2 6 5 3 3 2 1 1 2 3 3 2 3 3 2 0 3 5 5 3 3 5 6
12 13 14 13 13 14 15 16 18 17 15 16 17 13 4 4 3 2 3 3 4 3 1 3 4 5 3 3 3 1 2 1 2 3 3 3 2 1 2 3 7 5 2 4 3 6 4
12 12 12 11 11 12 12 13 14 16 14 11 13 15 4 3 3 1 1 3 2 2 3 2 3 3 3 3 2 2 1 2 2 3 3 1 2 2 2 3 4 3 2 4 5 4 5
10 11 9 9 9 9 10 11 12 14 13 9 7 13 7 4 4 1 2 1 1 5 5 1 4 2 3 3 1 1 1 1 0 2 2 1 4 3 5 5 3 1 5 4 4 5 5

GFSGBSN_925_spd_342.txt.gz
Wind_Speed
21 22 22 22 22 21 19 16 15 16 17 17 16 13 11 10 9 9 11 12 13 13 14 16 19 17 8 7 2 31 30 22 12 9 10 4 6 3 3 1 4 2 3 5 7 8 9
21 22 23 23 22 21 19 16 15 15 17 17 17 14 11 10 8 8 9 10 10 10 10 11 17 29 11 18 26 32 31 25 20 9 4 4 3 1 2 2 2 2 3 4 8 7 10
23 24 25 24 24 23 21 16 15 16 18 17 17 15 11 11 9 7 8 9 9 7 7 9 4 5 20 8 27 33 31 26 24 9 5 7 8 19 7 4 4 4 3 3 10 12 4
23 24 24 25 25 24 21 17 15 16 18 19 18 14 13 11 9 7 8 8 7 7 6 6 8 9 7 27 32 38 35 32 24 25 9 17 21 8 7 7 6 7 6 6 6 12 8
23 24 24 25 25 24 22 17 13 14 18 17 17 14 13 11 7 8 8 9 8 10 22 13 7 8 5 32 37 38 33 27 10 14 36 24 17 6 13 5 6 10 5 7 8 11 6
24 25 25 26 26 26 23 19 13 12 16 16 16 13 12 11 4 4 7 13 23 8 3 5 27 6 9 8 26 37 36 30 8 7 9 13 8 8 15 14 4 7 6 7 7 10 7
25 26 26 27 27 27 24 21 15 13 16 16 15 11 11 13 8 1 3 1 7 7 15 7 1 4 3 5 35 29 39 21 13 9 6 12 13 10 8 7 3 5 7 11 5 5 8
26 27 27 28 28 28 25 21 17 14 17 17 14 10 7 10 14 6 6 7 2 3 6 6 7 12 11 16 11 28 32 8 10 12 3 7 13 6 4 9 11 10 13 14 8 12 9
27 28 28 29 29 29 26 21 16 14 15 19 15 13 4 3 7 15 17 8 4 4 5 4 5 7 3 13 7 17 15 7 8 13 15 10 3 8 11 9 13 8 9 10 15 15 11
28 29 29 29 30 29 27 23 15 12 12 16 19 14 11 1 3 5 5 5 3 2 5 10 9 8 16 4 6 19 21 3 7 5 2 8 5 10 6 10 10 12 8 16 17 9 4
28 29 29 29 30 30 27 24 19 10 10 13 17 18 9 15 4 4 4 1 2 1 5 9 5 4 9 9 3 18 23 6 5 5 6 2 6 6 7 11 11 9 17 19 20 16 6
28 29 30 30 30 30 28 25 22 13 6 10 16 19 16 5 9 5 4 4 2 6 3 6 4 5 6 7 4 4 10 10 3 3 7 4 4 4 3 20 4 10 12 17 1 2 3
27 29 30 30 31 30 30 26 22 17 4 4 11 20 22 9 5 5 3 3 5 7 4 7 4 5 4 6 5 6 6 16 7 6 7 6 2 7 4 9 9 21 12 6 5 2 4
26 28 30 31 30 31 31 28 23 18 7 2 1 10 24 17 8 3 3 5 9 2 3 3 5 1 5 8 4 7 3 5 7 4 3 6 6 8 13 4 6 11 4 3 6 5 3
25 27 30 31 31 31 31 29 24 20 10 3 2 1 24 18 7 2 6 7 5 1 3 5 2 5 5 6 5 5 5 4 5 6 4 6 4 4 7 8 3 9 6 9 4 6 4
24 26 29 31 32 32 31 30 25 20 11 4 2 2 17 15 7 5 6 5 2 3 3 3 3 4 6 5 6 4 4 4 5 5 2 2 4 3 6 6 4 2 6 5 4 5 2
24 26 28 31 32 33 32 32 25 21 11 3 3 4 18 11 7 7 4 3 3 3 1 4 2 3 3 4 3 2 3 1 2 5 3 2 2 7 4 4 3 6 5 3 2 3 3
24 26 28 30 32 33 34 33 25 20 11 4 4 3 19 6 5 3 3 4 3 4 7 5 4 3 2 3 3 2 1 1 4 1 3 2 2 4 3 4 3 1 2 4 2 5 3
24 25 27 30 32 33 34 34 26 18 12 3 3 1 11 3 4 2 3 5 4 4 5 3 4 4 3 3 2 1 1 3 2 4 2 1 2 4 5 3 5 4 7 5 3 3 2
23 25 26 29 31 34 35 34 29 16 11 4 3 3 5 7 2 6 5 3 4 3 4 5 3 3 4 3 3 2 2 1 4 2 7 2 2 5 4 7 3 2 5 6 3 2 2
24 24 25 27 30 33 35 34 32 14 8 4 4 1 2 2 4 5 4 2 3 2 2 4 3 3 1 2 3 0 1 4 2 2 3 3 2 4 5 6 1 4 4 2 2 4 4
23 23 23 25 28 31 33 35 33 22 8 9 4 4 4 2 2 4 4 1 3 2 2 1 3 1 2 2 3 3 2 2 4 1 3 1 3 2 6 7 4 7 5 5 3 3 5
21 22 22 23 25 28 32 33 34 31 11 8 4 4 4 3 2 3 1 3 3 5 2 3 2 1 3 4 5 8 7 5 4 2 2 2 1 2 4 3 4 5 8 5 4 4 5
19 21 20 21 22 24 27 30 31 30 24 10 6 3 4 0 2 2 4 2 2 3 4 2 2 0 0 5 3 2 2 5 4 6 5 2 2 1 2 3 3 6 1 4 6 7 7
17 19 19 18 19 21 23 24 26 26 21 20 8 3 3 2 1 3 5 3 2 3 2 4 2 1 5 3 2 3 2 2 1 2 5 5 1 2 1 1 5 3 3 4 5 9 7
15 16 17 16 17 18 19 21 23 21 20 14 19 8 4 5 4 3 3 2 3 2 1 2 1 4 4 3 3 3 1 1 2 3 4 3 1 3 1 0 3 4 5 3 4 8 3
12 15 15 14 14 15 16 18 19 20 16 14 14 11 4 4 3 2 3 4 4 2 2 2 3 4 3 2 3 2 2 0 1 2 2 2 1 2 1 3 7 3 3 4 1 6 3
10 13 13 12 12 12 14 15 17 18 17 11 11 13 4 3 3 1 3 4 2 2 3 2 3 2 2 3 2 2 2 1 2 3 2 3 3 2 0 2 6 5 2 3 6 4 4
9 11 11 10 10 10 11 13 14 16 15 11 7 10 7 5 3 2 2 3 2 5 5 1 2 2 3 4 0 2 1 1 2 3 1 3 5 3 7 5 5 5 7 7 4 6 6

GFSGBSN_925_spd_345.txt.gz
Wind_Speed
21 21 21 21 20 19 16 14 14 15 15 14 13 10 10 9 9 10 11 11 12 13 22 31 22 13 11 15 9 29 25 22 9 7 11 3 11 3 5 3 3 7 6 12 12 16 20
21 22 22 22 22 19 16 14 14 16 16 16 14 11 10 8 8 9 9 9 8 9 10 16 29 32 22 27 24 30 24 19 18 15 19 20 5 6 6 4 8 5 16 15 14 13 13
22 22 22 22 22 21 17 13 14 16 17 16 14 12 11 9 8 9 8 8 7 6 6 6 4 10 34 9 26 34 25 30 24 23 12 10 25 17 5 2 8 3 8 12 18 17 6
23 24 24 24 24 22 18 13 13 16 17 16 14 12 11 10 10 9 8 9 13 13 10 11 13 16 8 27 27 39 30 17 34 23 23 27 23 15 7 7 6 9 6 8 10 18 10
24 24 25 25 25 23 20 15 13 16 17 16 14 13 12 10 10 10 10 10 10 16 28 19 9 9 5 30 38 32 32 12 7 15 31 19 17 10 16 6 5 12 6 11 9 13 10
24 24 25 25 25 24 21 17 15 17 17 16 14 14 14 7 6 8 15 29 31 12 4 6 25 5 10 7 24 26 24 29 10 5 8 14 9 11 18 16 7 13 8 10 13 11 9
24 25 26 26 26 24 21 17 15 17 18 16 13 11 14 14 4 2 2 0 5 7 25 11 5 7 3 12 22 28 26 24 15 13 7 12 15 15 13 13 7 8 12 17 10 4 11
25 26 27 27 27 26 21 16 16 16 19 18 15 9 7 11 14 3 2 7 2 6 8 10 17 8 9 9 14 30 28 8 12 15 3 8 14 9 6 12 12 12 13 11 8 7 11
26 26 27 28 28 26 24 18 14 14 17 19 16 14 4 6 7 17 17 8 6 6 5 5 6 8 4 14 10 19 16 4 13 18 19 15 5 8 9 8 13 12 7 13 15 15 11
26 27 27 28 29 27 25 22 14 12 14 17 17 13 12 2 5 6 5 5 4 3 4 12 9 9 16 5 7 19 15 3 6 5 7 9 5 10 10 13 13 8 16 18 18 8 3
26 27 27 29 29 28 24 22 18 9 11 16 17 17 9 8 8 4 2 3 4 1 4 11 5 3 13 11 7 21 14 9 12 10 2 3 8 8 12 13 11 9 22 20 13 7 5
26 28 28 28 29 28 26 22 19 11 7 12 20 19 8 5 10 5 3 6 2 4 4 4 4 5 6 10 4 3 12 8 2 5 11 5 3 3 10 16 5 14 20 5 6 4 6
26 28 28 29 28 28 27 23 18 13 2 5 11 22 17 10 2 3 7 3 4 6 2 6 4 5 4 6 5 4 6 14 8 4 8 4 5 2 13 13 10 22 16 6 6 3 4
25 27 29 29 28 28 28 25 18 14 5 1 2 13 17 14 7 6 3 4 8 0 2 2 3 1 4 7 3 7 3 5 10 4 3 8 5 9 11 5 10 12 6 4 6 5 3
24 26 28 30 29 29 29 27 19 15 6 2 2 2 21 13 5 3 5 7 3 2 2 3 1 4 3 4 2 3 5 4 6 7 5 7 1 3 7 3 7 9 11 9 5 3 1
24 26 28 30 30 29 30 28 20 16 5 2 5 4 13 10 5 5 6 5 2 0 1 2 3 2 4 6 4 3 3 3 4 4 1 2 4 2 4 4 4 4 8 8 5 6 4
23 25 28 31 31 31 31 30 21 16 5 3 3 3 14 3 5 7 4 3 3 2 2 2 2 2 2 3 2 2 2 0 1 3 2 1 2 10 2 5 7 6 5 4 2 3 4
23 25 27 30 32 32 32 31 21 16 6 3 4 3 14 3 5 2 3 6 4 2 6 3 3 2 1 1 1 1 1 2 2 0 2 0 0 7 6 4 0 3 5 4 3 7 3
23 25 27 29 32 32 33 31 22 14 11 2 3 0 9 2 4 2 3 4 3 2 3 2 2 2 1 1 0 0 1 3 2 1 1 1 2 5 3 3 1 2 4 6 2 1 1
23 24 25 28 31 33 33 31 25 13 9 4 3 3 4 6 2 6 5 3 4 3 3 3 2 2 1 1 2 0 1 1 2 1 4 3 2 2 6 13 3 4 2 4 2 3 3
23 23 24 26 29 32 33 31 29 12 7 3 4 1 0 2 4 4 3 3 4 3 2 1 2 2 2 1 2 1 1 2 1 1 2 1 4 4 9 13 8 4 5 4 3 2 4
22 22 23 25 27 30 33 32 30 17 6 9 3 3 3 3 1 3 3 1 4 3 3 1 3 2 2 1 1 2 1 2 2 1 1 0 3 3 12 8 6 10 8 9 9 4 8
21 22 22 23 25 28 30 32 30 27 8 7 4 4 3 2 2 2 2 5 5 6 1 2 4 3 3 3 3 5 6 4 3 2 1 2 2 6 4 2 2 7 7 9 6 6 5
19 21 21 20 22 24 27 29 30 28 22 10 5 3 3 1 1 2 4 2 5 4 4 3 3 2 1 3 1 1 2 4 5 7 7 2 2 2 5 3 2 1 3 5 8 12 10
16 19 20 18 19 21 23 25 26 25 21 20 8 3 3 3 2 3 5 4 4 2 2 3 2 1 1 2 0 1 1 1 1 2 7 9 1 2 3 4 10 4 2 3 4 15 12
13 16 18 17 17 18 20 22 23 22 18 14 19 8 4 5 4 3 3 2 3 3 2 2 2 2 2 2 2 1 1 1 1 1 3 6 3 3 1 3 4 1 1 4 3 10 3
11 13 15 15 14 15 17 19 20 20 17 14 15 10 4 3 2 2 2 3 4 3 2 1 1 1 2 2 1 2 2 0 2 2 4 3 3 5 5 5 7 5 4 4 4 4 7
9 11 13 12 12 13 14 16 18 18 17 9 12 14 4 2 1 2 4 4 3 2 3 4 2 1 1 2 2 2 3 1 2 3 3 4 4 3 3 3 6 8 3 3 6 11 12
8 9 10 10 10 11 12 13 15 16 15 10 8 8 8 6 2 3 3 3 2 5 5 2 1 3 3 3 2 2 3 2 3 3 3 4 6 3 8 5 3 7 7 10 11 12 14